This is the latest recevied weather packets stored in our database for station/object W5ITZ. If no packets are shown the sender has not sent any weather packets the latest 10 day(s).
| Time | Temp. | Humidity | Pressure | Rain* | Wind** | Luminosity | Snow |
|---|---|---|---|---|---|---|---|
| 1788087186 | 23.89° C | 96% | 1015.8 hPa | 0 mm | - | 0 W/m² | - |
| 1788086881 | 23.89° C | 96% | 1015.8 hPa | 0 mm | - | 0 W/m² | - |
| 1788086578 | 23.89° C | 96% | 1015.9 hPa | 0 mm | - | 0 W/m² | - |
| 1788086277 | 23.89° C | 95% | 1015.9 hPa | 0 mm | - | 0 W/m² | - |
| 1788085973 | 25° C | 96% | 1015.9 hPa | 0 mm | - | 0 W/m² | - |
| 1788085671 | 25° C | 96% | 1015.7 hPa | 0 mm | - | 0 W/m² | - |
| 1788085367 | 25° C | 96% | 1015.8 hPa | 0 mm | - | 0 W/m² | - |
| 1788085063 | 25° C | 96% | 1015.6 hPa | 0 mm | - | 0 W/m² | - |
| 1788084758 | 25° C | 96% | 1015.8 hPa | 0 mm | - | 0 W/m² | - |
| 1788084457 | 25° C | 96% | 1015.7 hPa | 0 mm | - | 0 W/m² | - |
| 1788084152 | 24.44° C | 96% | 1015.7 hPa | 0 mm | - | 0 W/m² | - |
| 1788083851 | 25° C | 96% | 1015.6 hPa | 0 mm | - | 0 W/m² | - |
| 1788083547 | 24.44° C | 96% | 1015.5 hPa | 0 mm | - | 0 W/m² | - |
| 1788083243 | 23.89° C | 96% | 1015.6 hPa | 0 mm | - | 0 W/m² | - |
| 1788082939 | 23.89° C | 96% | 1015.4 hPa | 0 mm | - | 0 W/m² | - |
| 1788082634 | 24.44° C | 96% | 1015.7 hPa | 0 mm | - | 0 W/m² | - |
| 1788082330 | 23.89° C | 96% | 1015.9 hPa | 0 mm | - | 0 W/m² | - |
| 1788082029 | 23.89° C | 96% | 1015.4 hPa | 0 mm | - | 0 W/m² | - |
| 1788081727 | 23.89° C | 95% | 1015.2 hPa | 0 mm | - | 0 W/m² | - |
| 1788081422 | 23.89° C | 95% | 1015.5 hPa | 0 mm | - | 0 W/m² | - |
| 1788081120 | 23.89° C | 95% | 1015.5 hPa | 0 mm | - | 0 W/m² | - |
| 1788080815 | 23.89° C | 95% | 1015.6 hPa | 0 mm | - | 0 W/m² | - |
| 1788080511 | 23.89° C | 95% | 1015.6 hPa | 0 mm | - | 0 W/m² | - |
| 1788080215 | 23.89° C | 95% | 1015.6 hPa | 0 mm | - | 0 W/m² | - |
| 1788079906 | 23.89° C | 95% | 1015.6 hPa | 0 mm | - | 0 W/m² | - |
* Rain latest hour (hover to see other rain measurements)
** Current wind speed in m/s (hover to see current wind gust speed)